Location: Johnson City
(36.3130°N, 82.3540°W)
Time: 10:45:41
(UTC-05:00)

N. Korean satellite - Pass Details

Date: 09 December 2021
Orbit: 446 x 492 km, 97.3° (Epoch: 17 January)

Event Time Altitude Azimuth Distance (km) Brightness Sun altitude
Rises 05:14:41 0° 21° (NNE) 2,451 10.3 -26.4°
Reaches altitude 10° 05:16:51 10° 31° (NNE) 1,576 9.4 -26.0°
Maximum altitude 05:19:57 34° 98° (E) 761 8.1 -25.3°
Drops below altitude 10° 05:23:02 10° 165° (SSE) 1,573 9.4 -24.7°
Sets 05:25:11 0° 175° (S) 2,446 10.3 -24.3°
